Preview of NWS' New Version of Forecast
This preview is not operational and should not be used for support decisions.
Latest weather observations around

Seattle, Seattle Boeing Field (KBFI)

Using International System of Units (Switch to English Units)
Date/ Time (PST) Wind (kph) Vis. (km) Weather Sky Cond. Temp (°C) Rel. Humidity Wind Chill (°C) Heat Index (°C) Pressure Precip. (cm)
Air Dwpt 6 hour Altimeter (hPa) Sea level (hPa) 1 hr 3 hr 6 hr
Max Min
Jan 16 13:53 WNW 9 16.09 Cloudy BKN120 OVC200 10 4     66%     1006.4 1006.5      
Jan 16 12:53 WNW 8 16.09 Mostly Cloudy BKN110 BKN200 9 3     66% 8   1007.5 1007.3      
Jan 16 11:53 NW 8 16.09 Mostly Cloudy BKN110 BKN200 8 2     68% 7   1008.1 1008.2      
Jan 16 10:53 Calm 14.48 Mostly Cloudy BKN120 6 2     76%     1009.2 1009      
Jan 16 09:53 Calm 16.09 Mostly Cloudy BKN120 3 1     85%     1009.2 1009.2      
Jan 16 08:53 SE 8 12.87 Mostly Cloudy BKN120 2 0     88% -1   1009.2 1008.9      
Jan 16 07:53 Calm 11.27 Cloudy BKN150 OVC250 1 -1     88%     1008.5 1008.4      
Jan 16 06:53 Calm 14.48 Clear CLR 2 -1     85%     1007.8 1007.7      
Jan 16 05:53 Calm 14.48 Clear CLR 1 -1     88%     1007.5 1007.5      
Jan 16 04:53 Calm 14.48 Clear CLR 1 -1     88%     1007.8 1007.6      
Jan 16 03:53 SSE 5 16.09 Clear CLR -1 -2     92% -2   1008.1 1007.9      
Jan 16 02:53 Calm 16.09 Clear CLR 0 -2     88%     1008.5 1008.3      
Jan 16 01:53 Calm 16.09 Clear CLR 1 -1     88%     1008.1 1008.2      
Jan 16 00:53 Calm 16.09 Clear CLR 1 -1     88%     1008.5 1008.5      
Jan 15 23:53 Calm 16.09 Clear CLR 2 0     88%     1008.8 1008.7      
Jan 15 22:53 Calm 14.48 Partly Cloudy SCT110 2 -1     82%     1008.8 1008.7      
Jan 15 21:53 Calm 16.09 Clear CLR 2 0     85%     1008.8 1008.7      
Jan 15 20:53 Calm 16.09 Cloudy BKN120 OVC200 4 1     82%     1008.5 1008.4      
Jan 15 19:53 Calm 16.09 Mostly Clear FEW120 4 1     79%     1008.5 1008.3      
Jan 15 18:53 Calm 16.09 Cloudy FEW120 OVC250 6 1     70%     1008.8 1008.7      
Jan 15 17:53 Calm 16.09 Mostly Cloudy BKN120 6 1     70%     1008.8 1008.9      
Jan 15 16:53 Calm 16.09 Mostly Cloudy BKN110 BKN250 8 1     60%     1009.2 1009.1      
Jan 15 15:53 Calm 16.09 Mostly Cloudy BKN110 8 1     58%     1009.5 1009.3      
Jan 15 14:53 NW 5 16.09 Mostly Cloudy BKN120 8 0     56% 8   1009.5 1009.5      
Jan 15 13:53 Calm 16.09 Mostly Cloudy FEW150 BKN230 9 -1     51%     1009.8 1009.9      
Jan 15 12:53 Calm 16.09 Mostly Cloudy FEW150 BKN230 8 1     60%     1010.5 1010.4      
Jan 15 11:53 Calm 14.48 Clear CLR 4 1     79%     1011.5 1011.4      
Jan 15 10:53 Calm 16.09 Partly Cloudy SCT180 3 1     85%     1012.2 1012.2      
Jan 15 09:53 SE 9 16.09 Partly Cloudy SCT250 0 -1     92% -3   1012.5 1012.5      
Jan 15 08:53 SSE 9 16.09 Partly Cloudy SCT180 -1 -2     92% -4   1012.5 1012.5      
Jan 15 08:08 SSE 5 16.09 Clear   -2 -3     92% -4   1012.5        
Jan 15 08:00 SE 9 0.4 Clear   -2 -3     92% -6   1012.5        
Jan 15 07:53 Calm 1.21 Clear   -2 -2     96%     1012.5 1012.3      
Jan 15 07:14 Calm 0.4 Fog VV001 -2 -3     92%     1012.5        
Jan 15 06:53 Calm 1.61 Fog/Mist SCT001 -1 -2     92%     1012.5 1012.4      
Jan 15 06:51 Calm 1.61 Fog/Mist SCT001 -1 -2     93%     1012.5        
Jan 15 05:53 Calm 0.4 Fog VV002 -1 -2     92%     1012.2 1012.2      
Jan 15 05:36 ESE 5 0.8 Fog VV002 -1 -2     96% -3   1012.5        
Jan 15 05:12 SSE 11 1.21 Fog/Mist VV001 -1 -2     92% -5   1012.5        
Jan 15 05:09 SSE 13 2.82 Fog/Mist FEW001 -2 -2     96% -6   1012.5        
Jan 15 04:53 SE 9 6.44 Fog/Mist CLR -1 -2     96% -4   1012.5 1012.5      
Jan 15 03:53 SSE 9 12.87 Clear CLR 1 -1     88% -2   1012.5 1012.5      
Jan 15 02:53 Calm 11.27 Clear CLR 2 1     92%     1012.9 1012.9      
Jan 15 01:53 Calm 11.27 Clear CLR 2 1     89%     1013.2 1012.9      
Jan 15 00:53   11.27 Clear CLR 1 0     92%     1013.2 1013.1      
Jan 14 23:53 Calm 11.27 Clear CLR 1 -1     92%     1013.6 1013.5      
Jan 14 22:53 Calm 14.48 Clear CLR 2 0     88%     1013.9 1013.8      
Jan 14 21:53 Calm 14.48 Clear CLR 2 0     88%     1013.9 1013.7      
Jan 14 20:53 Calm 16.09 Clear CLR 3 1     85%     1014.2 1014      
Jan 14 19:53 Calm 16.09 Clear CLR 4 1     82%     1014.2 1014      
Jan 14 18:53 Calm 16.09 Mostly Clear FEW250 6 2     76%     1014.2 1014.2      
Jan 14 17:53 Calm 16.09 Clear CLR 6 1     73%     1014.6 1014.4      
Jan 14 16:53 Calm 16.09 Partly Cloudy SCT200 8 2     63%     1014.9 1014.7      
Jan 14 15:53 NNW 8 16.09 Clear CLR 10 1     52%     1014.9 1014.8      
Jan 14 14:53 NW 8 16.09 Clear CLR 11 2     54%     1014.9 1014.9      
Jan 14 13:53 NW 5 16.09 Clear CLR 11 1     52%     1015.2 1015.2      
Jan 14 12:53 NW 8 16.09 Clear CLR 10 2     58%     1015.9 1015.7      
Jan 14 11:53 WNW 5 16.09 Clear CLR 9 2     59% 9   1016.6 1016.6      
Jan 14 10:53 NW 8 16.09 Clear CLR 8 2     68% 7   1017.6 1017.7      
Jan 14 09:53 Calm 16.09 Clear CLR 6 3     85%     1018.3 1018.2      
Jan 14 08:53 Calm 16.09 Clear CLR 3 1     82%     1018.6 1018.4      
Jan 14 07:53 Calm 16.09 Clear CLR 1 -1     85%     1018.6 1018.4      
Jan 14 06:53 N 5 16.09 Clear CLR 1 -2     85% -1   1018.6 1018.4      
Jan 14 05:53 Calm 16.09 Fog CLR -1 -2     89%     1018.6 1018.5      
Jan 14 04:53 Calm 16.09 Clear CLR 0 -2     88%     1019 1019      
Jan 14 03:53 Calm 16.09 Clear CLR 0 -2     88%     1019.3 1019.3      
Jan 14 02:53 Calm 16.09 Clear CLR 0 -1     92%     1020 1019.7      
Jan 14 01:53 Calm 16.09 Clear CLR 1 -1     85%     1020 1020      
Jan 14 00:53 Calm 16.09 Clear CLR 0 -1     92%     1020.3 1020.1      
Jan 13 23:53 Calm 16.09 Clear CLR 1 -1     88%     1020.3 1020.2      
Jan 13 22:53 Calm 16.09 Clear CLR 2 0     85%     1020.7 1020.6      
Jan 13 21:53 Calm 16.09 Clear CLR 2 0     85%     1020.7 1020.6      
Jan 13 20:53 Calm 16.09 Clear CLR 4 1     82%     1020.7 1020.4      
Jan 13 19:53 Calm 16.09 Clear CLR 4 1     82%     1020.3 1020.1      
Jan 13 18:53 Calm 16.09 Clear CLR 6 2     76%     1020 1020      
Jan 13 17:53 Calm 16.09 Clear CLR 7 2     71%     1020 1020      
Jan 13 16:53 NW 5 16.09 Clear CLR 9 2     63% 8   1020 1020      
Jan 13 15:53 NNW 9 16.09 Clear CLR 11 2     56%     1020 1019.8      
Jan 13 14:53 NW 5 16.09 Clear CLR 12 3     54%     1020 1020      
May 15 05:53 SSW 9 16.09 Cloudy OVC008 13 11     86%     1013.2 1013.1      
May 14 14:53 NNW 13 16.09 Clear CLR 28 11     33%   27 1011.9 1012      
May 13 17:53 NW 11 16.09 Clear CLR 27 8     30%   27 1011.5 1011.5      
May 13 11:53 Calm 16.09 Clear CLR 22 12     55%   21 1014.2 1014      
May 13 10:53 9 16.09 Clear CLR 21 12     57%     1014.2 1014.2      
May 13 08:53 ENE 5 16.09 Clear CLR 18 11     63%     1015.2 1015      
May 12 01:53 SE 9 16.09 Clear CLR 12 8     80%     1022.4 1022.2      
May 12 00:53 Calm 16.09 Clear CLR 14 8     67%     1022.4 1022.4      
May 11 17:53 5 16.09 Partly Cloudy SCT046 19 8     47%     1022.7 1022.6      
Jun 12 03:53 SSE 13 16.09 Mostly Cloudy BKN060 12 11     93%     1015.9 1015.9      
Jun 12 02:53 SSE 11 16.09 Mostly Cloudy BKN055 12 11     90%     1015.9 1015.7      
Jun 11 22:53 Calm 16.09 Clear CLR 16 9     64%     1015.6 1015.6      
Jun 11 14:53 NW 13 16.09 Clear   21 9     47%     1015.9 1015.7      
Jun 11 01:53 Calm 16.09 Mostly Cloudy BKN085 14 8     69%     1014.9 1014.9      
Jun 10 23:53 Calm 16.09 Cloudy OVC075 15 8     64%     1014.2 1014.1      
Jun 10 15:53 NNW 11 16.09 Clear   18 7     47%     1010.8 1010.7      
Jun 08 08:44 SSE 13 16.09 Light Rain SCT007 BKN038 OVC095 14 14     100%     1004.4   0    
Jun 07 14:53 9 16.09 Cloudy SCT140 OVC250 26 12     42%   26 1005.4 1005.3      
Jun 06 00:53 5 16.09 Clear CLR 16 8     60%     1017.3 1017.2      
Jun 05 20:53 NW 9 16.09 Clear CLR 18 8     50%     1017.6 1017.5      
Jun 05 19:53 NW 9 16.09 Mostly Cloudy BKN200 19 8     49%     1017.6 1017.5      
Jun 05 15:53 WNW 15 16.09 Mostly Cloudy BKN250 22 7     39%   21 1018.6 1018.4